Richmond International Airport Airport (RIC)

 

Airport Diagram
Current Weather/Forecast (VFR Conditions)
METAR KRIC 282154Z 23013KT 10SM BKN050 OVC300 23/18 A3000 RMK AO2 SLP162 T02280178
TAF KRIC 281729Z 2818/2918 22010KT P6SM SCT030 BKN150 FM290200 21004KT P6SM VCSH OVC040 FM290400 18004KT 6SM -RA OVC025 FM290700 19005KT 4SM -RA BR OVC004 FM291500 17010KT 2SM RA BR OVC007

All Charts
General
Chart Name Download
AIRPORT DIAGRAM
TAKEOFF MINIMUMS
ALTERNATE MINIMUMS
HOT SPOT

Departures
Chart Name Download
COLIN EIGHT
KALLI SIX (RNAV)
KALLI SIX (RNAV), CONT.1
LUCYL SIX (RNAV)
LUCYL SIX (RNAV), CONT.1
READE SEVEN
READE SEVEN, CONT.1

Arrivals
Chart Name Download
DUCXS FIVE (RNAV)
POWTN FIVE (RNAV)
SPIDR FOUR (RNAV)

Approaches
Chart Name Download
ILS OR LOC RWY 02
ILS OR LOC RWY 16
ILS OR LOC RWY 34
ILS RWY 34 (SA CAT I)
ILS RWY 34 (CAT II - III)
RNAV (RNP) Y RWY 02
RNAV (RNP) Y RWY 16
RNAV (RNP) Y RWY 20
RNAV (RNP) Y RWY 34
RNAV (GPS) Z RWY 02
RNAV (GPS) Z RWY 16
RNAV (GPS) Z RWY 20
RNAV (GPS) Z RWY 34
VOR RWY 02
VOR RWY 16
VOR RWY 20
VOR RWY 34


Inbound Traffic (Arrivals)

No inbound traffic.


Outbound Traffic (Departures)

No outbound traffic.